Terminal Aerodrome Forecast
Issued by NWS Detroit/Pontiac, MI

Home | Current Version | Previous Version | Text Only | Print | Product List | Glossary On
Versions: 1 2 3 4 5 6 7 8 9 10 11 12 13 14 15
000
FTUS43 KDTX 240521
TAFFNT
TAF
KFNT 240521Z 2406/2506 26014G26KT 6SM -RA BKN012 OVC022
     FM240900 24012G22KT P6SM SCT020 BKN030 OVC090
     FM241200 20011KT P6SM -RA BKN012 OVC025
     FM241700 22015G26KT P6SM -SHRA BKN028 OVC040
     FM250000 24014G20KT 6SM -RA BR BKN012 OVC020=

USA.gov is the U.S. government's official web portal to all federal, state and local government web resources and services.